Regional Weather Roundup
Issued by NWS

Home | Current Version | Previous Version | Graphics & Text | Print | Product List | Glossary On
Versions: 1 2 3 4 5 6 7 8 9 10 11 12 13 14 15 16 17 18 19 20 21 22 23 24 25 26 27 28 29 30 31 32 33 34 35 36 37 38 39 40 41 42 43 44 45 46 47 48 49 50
000
ASUS43 KFSD 260902
RWRSD

WEATHER ROUNDUP FOR SOUTH DAKOTA
NATIONAL WEATHER SERVICE SIOUX FALLS SD
400 AM CDT TUE MAY 26 2015

NOTE: "FAIR" INDICATES FEW OR NO CLOUDS BELOW 12,000 FEET WITH NO
SIGNIFICANT WEATHER AND/OR OBSTRUCTIONS TO VISIBILITY.


SDZ001>005-009-010-012>017-261000-
NORTHWEST AND NORTH CENTRAL SOUTH DAKOTA

CITY           SKY/WX    TMP DP  RH WIND       PRES   REMARKS
FAITH            N/A     52  49  89 CALM      29.92F
MOBRIDGE       CLOUDY    54  54 100 CALM      29.90S
$$

SDZ012>016-024>037-041>051-057-063-072>074-261000-
SOUTHWEST AND SOUTH CENTRAL SOUTH DAKOTA

CITY           SKY/WX    TMP DP  RH WIND       PRES   REMARKS
RAPID CTY ARPT CLOUDY    52  51  97 NE3       29.95S
PIERRE         MOCLDY    52  50  93 N9        29.90S
CUSTER         MOCLDY    45  43  93 NW6       29.98S
ELLSWORTH AFB  CLOUDY    52  52 100 S2        29.94  FOG
PHILIP         CLOUDY    52  51  97 N7        29.92F
PINE RIDGE     CLOUDY    53  51  93 NE3       29.94S
WINNER         PTSUNNY   52  47  83 NW3       29.89S
$$

SDZ004>011-016>023-039-040-261000-
NORTHEAST SOUTH DAKOTA

CITY           SKY/WX    TMP DP  RH WIND       PRES   REMARKS
ABERDEEN       PTCLDY    49  47  93 CALM      29.88S
WATERTOWN      MOCLDY    50  48  93 N10       29.84R
BROOKINGS      CLOUDY    52  48  87 NW5       29.85R
$$

SDZ017-020-022-023-036>040-048>070-261000-
SOUTHEAST SOUTH DAKOTA

CITY           SKY/WX    TMP DP  RH WIND       PRES   REMARKS
SIOUX FALLS    CLOUDY    55  53  93 N9        29.81R
HURON          PTCLDY    52  49  89 N9        29.86R
CHAMBERLAIN    CLOUDY    54  50  86 N8        29.87F
MITCHELL       MOCLDY    53  50  89 N9        29.84S
YANKTON        CLOUDY    57  54  88 NW8       29.78S
$$

ABBREVIATIONS USED IN REMARKS
   TC - TEMPERATURE IN CELSIUS
  WCI - WIND CHILL INDEX
   HX - HEAT INDEX
  VSB - VISIBILITY




USA.gov is the U.S. government's official web portal to all federal, state and local government web resources and services.